map of BUS home
Great Circle Mapper logo
BUS - Airport
Location
City:  Batumi, Georgia
ICAO / IATA:UGSB / BUS

Details
Type:Airport (Aerodrome, Airfield)
Latitude:4136'37"N (41.610278)
Longitude:4135'59"E (41.599694)
Datum:WGS 1984
Elevation:105 ft (32 m)
Runways:1
Longest:7325 × 150 ft (2233 × 45.5 m), paved

Time
Time Zone:UTC+3 (DST+4)

Weather
METAR:UGSB 200300Z AUTO 15008KT 9000 RA BKN017 BKN022 OVC056 09/07 Q1026 R13/290255 NOSIG
TAF:UGSB 190500Z 1906/2006 26020KT 9999 SCT023CB BKN060 TX16/1912Z TN13/2001Z
TEMPO 1906/1912 26025G35KT 3500 TSRA SCT010 BKN020CB
TEMPO 1913/1918 SHRA SCT010 BKN025CB
BECMG 1919/1921 21010KT

Related Locations
Nearby:
Farthest:GMR: 11137 mi / 17924 km
Mangareva [Totegegie], Gambier Islands, PF

Find:

   beyond  
but within

Other Information
Maps:
NOTAMs:
Links:
Sources:

  
flag of Georgia   

Sectional Chart

Flight Planning
at skyvector.com

Satellite Image

Google Maps Satellite View

 

Copyright © 2004-2014 Karl L. Swartz. All rights reserved.
The Great Circle Mapper name and logo are trademarks of the Great Circle Mapper.
All other trademarks mentioned herein belong to their respective owners.
Please see credits for attibutions and further copyright information.

  Follow gcmap on Facebook Follow gcmap on Twitter

hCard Microformat

Geo Microformat